Location: Navajo
(48.7922°N, 105.0603°W)
Time: 16:48:54
(UTC+00:00)

QB50P2 - Pass Details

Date: 03 July 2022
Orbit: 590 x 605 km, 97.9° (Epoch: 06 August)

Event Time Altitude Azimuth Distance (km) Brightness Sun altitude
Rises 10:05:09 0° 357° (N) 2,861 ? -7.7°
Reaches altitude 10° 10:08:17 10° 332° (NNW) 1,956 ? -7.4°
Maximum altitude 10:10:23 14° 302° (WNW) 1,726 ? -7.2°
Drops below altitude 10° 10:12:29 10° 272° (W) 1,953 ? -6.9°
Enters shadow 10:14:20 - 255° (WSW) 2,431 ? -6.7°
